Location: Innsbruck
(47.2657°N, 11.3914°E)
Time: 08:56:08
(UTC+02:00)

Envisat - Pass Details

Date: 25 September 2021
Orbit: 764 x 766 km, 98.2° (Epoch: 23 October)

Event Time Altitude Azimuth Distance (km) Brightness Sun altitude
Rises 05:56:13 0° 19° (NNE) 3,243 6.7 -12.5°
Reaches altitude 10° 05:58:39 10° 26° (NNE) 2,312 6.0 -12.1°
Maximum altitude 06:03:29 42° 98° (E) 1,082 4.4 -11.3°
Drops below altitude 10° 06:08:16 10° 169° (SSE) 2,295 5.5 -10.5°
Sets 06:10:40 0° 176° (S) 3,216 6.2 -10.1°
